FENGYUN 1C DEB

Satellite information

Favourite Embed

Satellite Type and Status

DEBRISIN ORBIT

Key statistics

Satellite FENGYUN 1C DEB at a glance.

Uptime

9714

Days in orbit

Revolutions

≈ 14.1

Per day

Orbit

SSO

Sun Synchronous Orbit

Inclination

98.7

Latest

Satellite identification and parameters

Extended collection of information and parameters for FENGYUN 1C DEB.

Object identification

Identified? True

Debris? True

Object name: FENGYUN 1C DEB

International designator: 1999-025XC

Object number (NORAD): 30243

Object ID (CCSDS): 30243

Country: PEOPLES REPUBLIC OF CHINA (PRC)

Current information (Y/N): Y

RCS size: SMALL

Orbital parameters

Period: 101.909 minutes

Inclination: 98.6932 deg

SMA: 7227.19 km

Apoapsis: 858.497 km

Periapsis: 839.613 km

RAAN: 357.7536 deg

Eccentricy: 0.00130649

Argument of periapsis: 120.1754 deg

Mean anomaly: 252.2391 deg

Mean motion: 14.13020795 rev/day

Mean motion (dot): 0.00001008 rev/day2

B* drag term: 0.00056300303 1/REarth

Two-line elements (TLE)

Creation date: Dec. 12, 2025, 10:14 a.m.

Reference frame: TEME

Reference center: EARTH

Epoch: Dec. 12, 2025, 7:44 a.m. UTC

TLE line 0: 0 FENGYUN 1C DEB

TLE line 1: 1 30243U 99025XC 25346.32264953 .00001008 00000-0 56300-3 0 9997

TLE line 2: 2 30243 98.6932 357.7536 0013065 120.1754 252.2391 14.13020795972736

Live tracking on map

Real-time ground track for satellite FENGYUN 1C DEB.

In-orbit conjunctions

A list of the most updated potential collisions computed for object FENGYUN 1C DEB.

Target Orbit TCA Probability of collision Miss distance Type
CZ-6A DEB SSO 2025-04-04 05:11:45 0.0002874019 153.0 (m) DEBRIS
COSMOS 2360 LEO 2025-01-12 23:05:56 0.0002297959 190.0 (m) PAYLOAD
COSMOS 1980 LEO 2024-11-08 07:30:54 0.0006598079 351.0 (m) PAYLOAD
COSMOS 2322 LEO 2024-10-16 08:45:07 0.0001604486 85.0 (m) PAYLOAD
SL-14 DEB LEO 2024-09-25 12:53:22 0.000386829 247.0 (m) DEBRIS

Associated space launch

Chinese polar orbiting meteorological satellite

FENGYUN 1C DEB was lifted into orbit during the mission ‘Long March 4B | Feng Yun 1C’, on board a Long March 4B space rocket.

The launch took place on May 10, 1999, 1:33 a.m. from Launch Complex 7.

For more information about the launch, click the button.

Launch to space Long March 4B | Feng Yun 1C
Long March 4B | Feng Yun 1C

Agency: N/A

Status: Launch Successful

Launch date: May 10, 1999, 1:33 a.m. UTC

Rocket: Long March 4B

Launch pad: Launch Complex 7

Location: Taiyuan Satellite Launch Center, People's Republic of China

...

Latest news about this satellite

There are no fresh news available about this satellite. Check back as we update our databases every day.


Newsletter sign-up

Weekly statistics, charts and insights to help you stay on top of the space industry.